Regional Weather Roundup
Issued by NWS Upton, NY

Home | Current Version | Previous Version | Text Only | Print | Product List | Glossary On
Versions: 1 2 3 4 5 6 7 8 9 10 11 12 13 14 15 16 17 18 19 20 21 22 23 24 25 26 27 28 29 30 31 32 33 34 35 36 37 38 39 40 41 42 43 44 45 46 47 48 49 50
000
ASUS41 KOKX 300808
RWROKX

REGIONAL WEATHER ROUNDUP
NATIONAL WEATHER SERVICE NEW YORK NY
400 AM EDT THU JUL 30 2015

NOTE: "FAIR" INDICATES FEW OR NO CLOUDS BELOW 12,000 FEET WITH NO
SIGNIFICANT WEATHER AND/OR OBSTRUCTIONS TO VISIBILITY.

NYZ071-072-176-178-NJZ106-104-300900-
NEW YORK CITY METRO AREA


CITY           SKY/WX    TMP DP  RH WIND       PRES   REMARKS
CENTRAL PARK   CLEAR     80  71  74 CALM      29.94F
LAGUARDIA APRT PTCLDY    80  71  74 SW8       29.91F
KENNEDY INTL   PTCLDY    77  72  84 SW7       29.93F
NEWARK/LIBERTY PTCLDY    78  72  81 S7        29.91F
BRNX BOT. GARD   N/A     79  72  78 W3        29.93R
TETERBORO      CLEAR     78  71  79 S5        29.90F
$$

NYZ177-179-078>081-300900-
LONG ISLAND NEW YORK

CITY           SKY/WX    TMP DP  RH WIND       PRES   REMARKS
FARMINGDALE    CLEAR     77  72  84 SW8       29.93F
ISLIP          CLEAR     76  73  91 SW8       29.91F
SHIRLEY        PTCLDY    77  74  90 SW7       29.93F
WESTHAMPTON    CLEAR     77  74  90 SW16      29.94S
MONTAUK POINT    N/A     76  73  91 SW8       29.93S
$$

NYZ052-065-067-300900-
HUDSON VALLEY

CITY           SKY/WX    TMP DP  RH WIND       PRES   REMARKS
WHITE PLAINS   CLEAR     77  72  84 CALM      29.92F
NEWBURGH       NOT AVBL
MONTGOMERY     CLEAR     72  70  93 S5        29.91F
POUGHKEEPSIE   CLEAR     70  67  90 CALM      29.89F
ALBANY         MOCLDY    75  66  73 CALM      29.87F
$$

NJZ001-105-106-008-010-013-015-019>022-104-300900-
NEW JERSEY

CITY           SKY/WX    TMP DP  RH WIND       PRES   REMARKS
NEWARK/LIBERTY PTCLDY    78  72  81 S7        29.91F
TETERBORO      CLEAR     78  71  79 S5        29.90F
CALDWELL       CLEAR     77  71  82 SW3       29.91F
MORRISTOWN     MOCLDY    73  70  88 CALM      29.92S
SOMERVILLE     PTCLDY    72  70  93 CALM      29.90F FOG
SUSSEX         MOCLDY    70  67  90 CALM      29.92F
ANDOVER          N/A     72  71  97 CALM      29.93F
TRENTON        CLEAR     75  72  90 S6        29.92F
MILLVILLE      CLEAR     76  72  87 VRB3      29.94F
ATLANTIC CITY  CLEAR     76  72  87 SW7       29.95F
WRIGHTSTOWN    CLEAR     73  72  99 SW6       29.91F
TOMS RIVER       N/A     73  72  94 SW6       29.94F
BELMAR         CLEAR     73  66  78 SW5       29.94F
$$

PAZ047>061-062-071-300900-
EASTERN PENNSYLVANIA

CITY           SKY/WX    TMP DP  RH WIND       PRES   REMARKS
PHILADELPHIA   PTCLDY    78  72  81 S8        29.93F
ALLENTOWN      PTCLDY    75  71  87 CALM      29.92F
SCRANTON       CLOUDY    78  71  79 SW3       29.93S
$$

CTZ002-004>006-009-010-012-RIZ004-006-007-MAZ004-011-015-300900-
SOUTHERN NEW ENGLAND
 IN CT

CITY           SKY/WX    TMP DP  RH WIND       PRES   REMARKS
BRADLEY INTL   CLEAR     73  68  84 S6        29.89F
HARTFORD       CLEAR     74  71  91 CALM      29.89F
DANBURY        CLEAR     75  68  78 CALM      29.93F
WTRBRY/OXFORD  CLEAR     72  64  78 SW3       29.95S
BRIDGEPORT     CLEAR     78  73  84 W3        29.91S
MERIDEN        CLEAR     70  67  90 CALM      29.91S FOG
NEW HAVEN      CLEAR     77  72  84 SW6       29.91F
CHESTER        FAIR      73  73 100 SW6       29.93S
GROTON         CLEAR     75  73  93 SW6       29.90F
WILLIMANTIC    CLEAR     69  66  90 CALM      29.91F

 IN RI

CITY           SKY/WX    TMP DP  RH WIND       PRES   REMARKS
PROVIDENCE     CLEAR     74  70  87 S5        29.90F
BLOCK ISLAND     N/A     72  70  94 SW13      29.93S
WESTERLY       CLEAR     74  72  93 SW3       29.92S

 IN MA

CITY           SKY/WX    TMP DP  RH WIND       PRES   REMARKS
BOSTON         CLEAR     77  67  71 SW8       29.88S
WORCESTER      CLEAR     72  65  78 W10       29.93F
WESTFIELD      CLEAR     67  65  93 SE3       29.90S
PROVINCETOWN   CLEAR     72  64  78 SW10      29.89S
NANTUCKET      CLOUDY    72  70  93 SW10      29.92F FOG
$$

ANZ330-335-338-340-345-350-353-355-300900-
COASTAL MARINE OBSERVATIONS


STATION/POSITION TIME  SKY/WX   TEMP    WIND        PRES    VSBY  WAVE
                                AIR SEA DIR/SP/G                  HT/PER
                 (UTC)          (F)     (DEG/KT/KT) (MB)    (MI)  (FT/S)
NY HARB ENTRANCE 0750            77 76  220/ 12/ 16 1012.9          3/ 9
4S FIRE IS       NOT AVBL
20S FIRE ISLAND  0750            76 74  230/ 14/ 16 1013.4          3/ 9
GREAT SOUTH BAY  0700            77 81  250/ 14/ 17   N/A
23SW MTP         0750            76 74  240/ 16/ 19 1012.9          4/ 8
HUDSON CANYON    NOT AVBL
KINGS POINT      0700            79 72                N/A
EXECUTION ROCKS  0700            76     200/  4/  6   N/A
CENTRAL LI SOUND NOT AVBL
EASTERN LI SOUND 0700            72 68  250/  4/  6   N/A
ROBBINS REEF     0700            79                   N/A
$$


>>>>>>>>>>>>>>>>>>>>>>>>>>>> KEY <<<<<<<<<<<<<<<<<<<<<<<<<<<
>                                                          <
>     SKY/WX - SKY CONDITION/PRESENT WEATHER               <
>     TMP    - TEMPERATURE IN FAHRENHEIT                   <
>     DP     - DEWPOINT IN FAHRENHEIT                      <
>     RH     - RELATIVE HUMIDITY IN PERCENT                <
>     WIND   - DIRECTION AND SPEED IN MPH                  <
>     PRES   - MEAN SEA LEVEL PRESSURE IN INCHES OF HG     <
>     WCI    - WIND CHILL INDEX                            <
>     VSB    - VISIBILITY IN MILES                         <
>     HX     - HEAT INDEX                                  <
>     TC     - TEMPERATURE IN CELSIUS                      <
>     VRB    - VARIABLE WIND DIRECTION                     <
>                                                          <
>>>>>>>>>>>>>>>>>>>>>>>>>>>> KEY <<<<<<<<<<<<<<<<<<<<<<<<<<<





USA.gov is the U.S. government's official web portal to all federal, state and local government web resources and services.